User: anonymous   Login
Location: Bishausen
(51.6334°N, 9.9631°E)
Time: 20:33:26
(UTC+00:00)
Language:

Cosmos 2360 Rocket - Orbit

View from above orbital plane
View from above orbital plane
View from above satellite
View from above satellite

Ground track
Ground track

The orbit data is extracted from the following two-line orbital elements,

1 25407U 98045B   24198.52707649 -.00000092  00000-0 -22430-4 0  9996
2 25407  71.0121   5.6633 0009132 232.2864 127.7432 14.16012911342266
Epoch (UTC): 16 July 2024 12:38:59
Eccentricity: 0.0009132
inclination: 71.0121°
perigee height: 832 km
apogee height: 845 km
right ascension of ascending node: 5.6633°
argument of perigee: 232.2864°
revolutions per day: 14.16012911
mean anomaly at epoch: 127.7432°
orbit number at epoch: 34226

The dashed part of the orbit path shows where the satellite is in the earth's shadow,  

DLR